Location: Unspecified
(0.0000°N, 0.0000°E)
Time: 16:44:53
(UTC+00:00)

AD-A Canister/Altair 2 - Pass Details

Date: 07 May 2025
Orbit: 593 x 2295 km, 78.6° (Epoch: 12 May)

Event Time Altitude Azimuth Distance (km) Brightness Sun altitude
Rises 19:04:52 0° 193° (SSW) 5,884 11.5 -16.3°
Reaches altitude 10° 19:08:34 10° 195° (SSW) 4,870 11.1 -17.2°
Maximum altitude 19:21:30 68° 275° (W) 2,181 9.4 -20.3°
Drops below altitude 10° 19:31:49 10° 357° (N) 3,933 10.9 -22.7°
Sets 19:34:31 0° 360° (N) 4,720 11.3 -23.3°
